THORAD AGENA D DEB, 19150

Orbit data source: Space-Track

THORAD AGENA D DEB, 19150 is space debris in SSO originally from a launch on Wed, 08 Apr 1970 UTC launched from the Air Force Western Test Range (AFWTR). Debris objects in space refer to the collection of defunct objects orbiting the Earth. Examples of debris include non-operational satellites, rocket bodies, and fragments generated from explosions, collisions, or faulty payload assembly.

Loading next visibility...
Identifier
19150, 1970-025PS
Orbit
SSO
Country
Flag of USUS
Related business
Manufacturer
Unknown
Mission
Spacecraft
Bus & Motor
Unknown
Mass
Unknown
Launch date (UTC)
1970-04-08 (56 years ago)
Launch vehicle
Unknown
Launch site
Air Force Western Test Range (AFWTR)
Object type
Payload
Rocket body
Debris
Shape & HBR
Unknown shape, 0.1 m
Radar Cross Section
Medium (>0.1 m² and <1 m²)

Expand to show TLE details & history
Last TLE update: 2 days ago

TLE from 2 days ago
0 THORAD AGENA D DEB
1 19150U 70025PS  26206.32995725  .00009145  00000-0  38118-2 0  9990
2 19150 100.3317 162.3894 0028561  43.5274 316.8147 14.26310864910840
Epoch: 2026-07-25T07:55Z
TLE epoch observation values (Epoch: 2026-07-25T07:55:08.306Z)
Latitude
-0.00007°
Longitude
100.56101°
Altitude
792.023 km
Speed
7.465 km/s
True Right ascension
10h 49m 33s
True Declination
0° 00' 00"
Sunlit
Object was in daylight at epoch
Visualization orbit readout
Latitude
Unknown
Longitude
Unknown
Altitude
Unknown
Speed
Unknown
Apparent Right ascension
Unknown
Apparent Declination
Unknown
Sunlit
N/A
Visualization observer readout
Local Sidereal Time
05:57:06
Azimuth
Unknown
Elevation
Unknown
Doppler factor
Unknown
Orbital elements
Apogee altitude
821.829 km
Perigee altitude
780.818 km
Semi-major axis
7,179.461 km
Eccentricity
0.00286
Inclination
100.3317°
RAAN
162.3894°
Arg. of periapsis
43.5274°
True anomaly
316.59014°
Mean anomaly
316.8147°
Eccentric anomaly
316.70248°
Mean motion
3.56784 °/min
Orbital period
100.9 mins
BSTAR
0.0038118
Loading maneuver chart data...
Computing Atmospheric mass density...

Documentation

Showing up to 5 results
|